User: anonymous   Login
Location: Kolin
(50.0330°N, 15.2000°E)
Time: 00:55:49
(UTC+02:00)
Language:

ISS - Orbit

View from above orbital plane
View from above orbital plane
View from above satellite
View from above satellite

Ground track
Ground track

The orbit data is extracted from the following two-line orbital elements,

1 25544U 98067A   24109.87569424  .00025877  00000-0  45334-3 0  9992
2 25544  51.6387 249.4981 0004832  77.0876  58.5534 15.50400316449340
Epoch (UTC): 18 April 2024 21:00:59
Eccentricity: 0.0004832
inclination: 51.6387°
perigee height: 412 km
apogee height: 419 km
right ascension of ascending node: 249.4981°
argument of perigee: 77.0876°
revolutions per day: 15.50400316
mean anomaly at epoch: 58.5534°
orbit number at epoch: 44934

The dashed part of the orbit path shows where the satellite is in the earth's shadow,  

DLR